Weather History for PAPB - December, 2012

Change the Weather History Date:

Saturday, December 1, 2012

  Actual Average Record
Temperature  
Mean Temperature 32 °F -  
Max Temperature 37 °F 33 °F 43 °F (2014)
Min Temperature 28 °F 26 °F 17 °F (1997)
Degree Days  
Heating Degree Days 32    
Moisture  
Dew Point 30 °F    
Average Humidity 84    
Maximum Humidity 93    
Minimum Humidity 75    
Precipitation  
Precipitation 0.00 in - - ()
Sea Level Pressure  
Sea Level Pressure 30.23 in    
Wind  
Wind Speed 12 mph (NNW)    
Max Wind Speed 22 mph    
Max Gust Speed 33 mph    
Visibility 10 miles    
Events      
Averages and records for this station are not official NWS values.
T = Trace of Precipitation, MM = Missing Value Source: NWS Daily Summary

Daily Weather History Graph

Daily Weather History Graph

Search for Another Location

Airport or City:

Trip Planner

Search our weather history database for the weather conditions in past years. The results will help you decide how hot, cold, wet, or windy it might be!

Date:

Astronomy

Dec. 01, 2012 Rise Set
Actual Time 10:30 AM AKST 5:45 PM AKST
Civil Twilight 9:43 AM AKST 6:31 PM AKST
Nautical Twilight 8:54 AM AKST 7:20 PM AKST
Astronomical Twilight 8:09 AM AKST 8:06 PM AKST
Moon 9:00 PM AKST (12/1) 12:41 PM AKST (12/1)
Length of Visible Light 8h 48m
Length of Day
7h 14m
Waning Gibbous, 91% of the Moon is Illuminated
Dec 1
Waning Gibbous
Dec 6
Last Quarter
Dec 12
New
Dec 19
First Quarter
Dec 28
Full

Hourly Weather History & Observations

Time (AKST) Temp. Windchill Dew Point Humidity Pressure Visibility Wind Dir Wind Speed Gust Speed Precip Events Conditions
12:53 AM 32.0 °F 23.6 °F 28.0 °F 85% 30.19 in 10.0 mi NNE 10.4 mph - N/A   Clear
1:53 AM 32.0 °F 23.6 °F 27.0 °F 82% 30.20 in 10.0 mi North 10.4 mph - N/A   Clear
3:53 AM 30.0 °F 25.2 °F 26.1 °F 85% 30.20 in 10.0 mi SE 4.6 mph - N/A   Clear
4:53 AM 28.0 °F - 25.0 °F 88% 30.21 in 10.0 mi Calm Calm - N/A   Clear
5:53 AM 30.9 °F - 27.0 °F 85% 30.21 in 10.0 mi Calm Calm - N/A   Clear
6:53 AM 33.1 °F 23.0 °F 26.1 °F 75% 30.21 in 10.0 mi North 15.0 mph - N/A   Clear
7:53 AM 34.0 °F 23.8 °F 28.9 °F 82% 30.21 in 10.0 mi North 16.1 mph 24.2 mph N/A   Clear
8:53 AM 34.0 °F 26.0 °F 30.0 °F 85% 30.22 in 10.0 mi NNW 10.4 mph - N/A   Scattered Clouds
9:08 AM 33.8 °F 23.9 °F 30.2 °F 87% 30.26 in 10.0 mi NNW 15.0 mph 20.7 mph N/A   Mostly Cloudy
9:15 AM 33.8 °F 23.5 °F 30.2 °F 87% 30.25 in 10.0 mi North 16.1 mph - N/A   Scattered Clouds
9:40 AM 33.8 °F 22.5 °F 28.4 °F 81% 30.25 in 10.0 mi NNW 19.6 mph 27.6 mph N/A   Mostly Cloudy
9:53 AM 35.1 °F 23.5 °F 30.0 °F 82% 30.21 in 10.0 mi North 21.9 mph 27.6 mph N/A   Mostly Cloudy
10:31 AM 35.6 °F 25.2 °F 30.2 °F 81% 30.26 in 10.0 mi North 18.4 mph 33.4 mph N/A   Overcast
10:44 AM 35.6 °F 27.1 °F 30.2 °F 81% 30.26 in 10.0 mi North 12.7 mph 27.6 mph N/A   Overcast
10:53 AM 34.0 °F 23.4 °F 28.9 °F 82% 30.22 in 10.0 mi North 17.3 mph 26.5 mph N/A   Overcast
11:19 AM 33.8 °F 23.2 °F 28.4 °F 81% 30.26 in 10.0 mi North 17.3 mph 24.2 mph N/A   Overcast
11:53 AM 34.0 °F 25.0 °F 28.9 °F 82% 30.24 in 10.0 mi North 12.7 mph 23.0 mph N/A   Overcast
12:53 PM 34.0 °F 25.0 °F 28.0 °F 79% 30.23 in 10.0 mi North 12.7 mph 21.9 mph N/A   Mostly Cloudy
1:44 PM 33.8 °F 27.0 °F 28.4 °F 81% 30.24 in 10.0 mi North 8.1 mph - N/A   Scattered Clouds
1:53 PM 35.1 °F 32.2 °F 28.9 °F 78% 30.20 in 10.0 mi NNW 3.5 mph - N/A   Scattered Clouds
2:04 PM 35.6 °F 29.2 °F 28.4 °F 75% 30.24 in 10.0 mi NNW 8.1 mph - N/A   Mostly Cloudy
2:53 PM 34.0 °F 23.4 °F 30.0 °F 85% 30.22 in 10.0 mi NNW 17.3 mph - N/A   Mostly Cloudy
3:53 PM 34.0 °F 23.8 °F 28.9 °F 82% 30.22 in 10.0 mi NNW 16.1 mph - N/A   Scattered Clouds
4:20 PM 35.6 °F 26.6 °F 30.2 °F 81% 30.27 in 10.0 mi NNW 13.8 mph - N/A   Mostly Cloudy
4:22 PM 35.6 °F 26.6 °F 30.2 °F 81% 30.27 in 10.0 mi NW 13.8 mph - N/A   Mostly Cloudy
4:53 PM 35.1 °F 24.8 °F 30.9 °F 85% 30.25 in 10.0 mi NNW 17.3 mph - N/A   Overcast
5:51 PM 35.6 °F 25.5 °F 30.2 °F 81% 30.27 in 10.0 mi NNW 17.3 mph - N/A   Overcast
5:53 PM 34.0 °F 23.4 °F 30.9 °F 89% 30.23 in 10.0 mi NNW 17.3 mph - N/A   Overcast
6:20 PM 35.6 °F 27.5 °F 30.2 °F 81% 30.27 in 10.0 mi NW 11.5 mph - N/A   Overcast
6:53 PM 35.1 °F 26.9 °F 30.9 °F 85% 30.24 in 10.0 mi NW 11.5 mph - N/A   Overcast
7:53 PM 36.0 °F 29.0 °F 30.9 °F 82% 30.22 in 10.0 mi NW 9.2 mph - N/A   Overcast
8:30 PM 35.6 °F 26.6 °F 32.0 °F 87% 30.25 in 10.0 mi WNW 13.8 mph - N/A   Overcast
8:49 PM 35.6 °F 27.1 °F 32.0 °F 87% 30.24 in 10.0 mi WNW 12.7 mph - N/A   Overcast
8:53 PM 36.0 °F 27.1 °F 32.0 °F 86% 30.21 in 10.0 mi WNW 13.8 mph - N/A   Overcast
9:53 PM 37.0 °F 28.5 °F 34.0 °F 89% 30.19 in 10.0 mi WNW 13.8 mph - N/A   Overcast
10:21 PM 37.4 °F 29.3 °F 33.8 °F 87% 30.22 in 10.0 mi WNW 12.7 mph - N/A   Overcast
10:53 PM 37.0 °F 28.1 °F 34.0 °F 89% 30.19 in 10.0 mi WNW 15.0 mph - N/A   Overcast
11:03 PM 37.4 °F 28.5 °F 33.8 °F 87% 30.22 in 10.0 mi WNW 15.0 mph - N/A   Overcast
11:43 PM 37.4 °F 28.9 °F 35.6 °F 93% 30.21 in 10.0 mi WNW 13.8 mph - N/A   Overcast
11:53 PM 37.0 °F 28.1 °F 35.1 °F 93% 30.18 in 10.0 mi WNW 15.0 mph - N/A   Overcast